| time (UTC) | temp F | wind direction | speed MPH | gust MPH | rain 1hr in | rain 24hr in | rain mn in | humidity % | barometer mb |
| 20260504231003 | 72 | 311 | 1.0 | 5.0 | 0.00 | 0.00 | 0.00 | 25 | 1010.9 |
| 20260504230215 | 72 | 304 | 2.0 | 6.0 | 0.00 | 0.00 | 0.00 | 25 | 1011.0 |
| 20260504225213 | 73 | 291 | 4.0 | 9.0 | 0.00 | 0.00 | 0.00 | 25 | 1011.0 |
| 20260504224003 | 74 | 254 | 5.0 | 11.0 | 0.00 | 0.00 | 0.00 | 24 | 1011.0 |
| 20260504223003 | 74 | 239 | 4.0 | 15.0 | 0.00 | 0.00 | 0.00 | 24 | 1011.1 |
| 20260504222003 | 73 | 233 | 4.0 | 12.0 | 0.00 | 0.00 | 0.00 | 24 | 1011.2 |
| 20260504221003 | 73 | 249 | 5.0 | 12.0 | 0.00 | 0.00 | 0.00 | 24 | 1011.2 |
| 20260504220003 | 74 | 232 | 4.0 | 9.0 | 0.00 | 0.00 | 0.00 | 26 | 1011.3 |
| 20260504215003 | 73 | 272 | 3.0 | 10.0 | 0.00 | 0.00 | 0.00 | 25 | 1011.4 |
| 20260504214003 | 73 | 241 | 4.0 | 10.0 | 0.00 | 0.00 | 0.00 | 25 | 1011.5 |
| 20260504213212 | 73 | 237 | 4.0 | 11.0 | 0.00 | 0.00 | 0.00 | 25 | 1011.6 |
| 20260504212003 | 72 | 241 | 3.0 | 8.0 | 0.00 | 0.00 | 0.00 | 25 | 1011.6 |
| 20260504211003 | 72 | 264 | 6.0 | 12.0 | 0.00 | 0.00 | 0.00 | 25 | 1011.8 |
| 20260504210003 | 73 | 197 | 5.0 | 11.0 | 0.00 | 0.00 | 0.00 | 25 | 1011.8 |
| 20260504205003 | 72 | 255 | 4.0 | 10.0 | 0.00 | 0.00 | 0.00 | 25 | 1012.0 |
| 20260504204003 | 72 | 271 | 3.0 | 11.0 | 0.00 | 0.00 | 0.00 | 26 | 1011.9 |
| 20260504203003 | 72 | 248 | 4.0 | 9.0 | 0.00 | 0.00 | 0.00 | 24 | 1012.1 |
| 20260504202003 | 72 | 156 | 4.0 | 10.0 | 0.00 | 0.00 | 0.00 | 27 | 1012.1 |
| 20260504201003 | 71 | 222 | 4.0 | 11.0 | 0.00 | 0.00 | 0.00 | 25 | 1012.3 |
| 20260504200004 | 72 | 231 | 4.0 | 9.0 | 0.00 | 0.00 | 0.00 | 24 | 1012.4 |
| 20260504195214 | 71 | 266 | 4.0 | 8.0 | 0.00 | 0.00 | 0.00 | 24 | 1012.4 |
| 20260504194214 | 72 | 239 | 3.0 | 11.0 | 0.00 | 0.00 | 0.00 | 24 | 1012.5 |
| 20260504193003 | 72 | 278 | 2.0 | 8.0 | 0.00 | 0.00 | 0.00 | 24 | 1012.6 |
| 20260504192214 | 71 | 343 | 3.0 | 8.0 | 0.00 | 0.00 | 0.00 | 23 | 1012.6 |
| 20260504191003 | 70 | 48 | 7.0 | 13.0 | 0.00 | 0.00 | 0.00 | 25 | 1012.5 |
| 20260504190003 | 70 | 41 | 5.0 | 14.0 | 0.00 | 0.00 | 0.00 | 24 | 1012.7 |
| 20260504185003 | 70 | 23 | 4.0 | 8.0 | 0.00 | 0.00 | 0.00 | 23 | 1012.7 |
| 20260504184003 | 70 | 16 | 5.0 | 11.0 | 0.00 | 0.00 | 0.00 | 25 | 1012.8 |
| 20260504183004 | 70 | 9 | 6.0 | 12.0 | 0.00 | 0.00 | 0.00 | 23 | 1012.7 |
| 20260504182003 | 69 | 11 | 8.0 | 16.0 | 0.00 | 0.00 | 0.00 | 24 | 1012.9 |
| 20260504181003 | 69 | 16 | 7.0 | 15.0 | 0.00 | 0.00 | 0.00 | 25 | 1012.9 |
| 20260504180003 | 69 | 28 | 9.0 | 16.0 | 0.00 | 0.00 | 0.00 | 25 | 1013.0 |
| 20260504175003 | 69 | 16 | 7.0 | 15.0 | 0.00 | 0.00 | 0.00 | 25 | 1012.9 |
| 20260504174003 | 68 | 13 | 8.0 | 13.0 | 0.00 | 0.00 | 0.00 | 26 | 1012.9 |
| 20260504173003 | 68 | 11 | 7.0 | 15.0 | 0.00 | 0.00 | 0.00 | 25 | 1012.9 |
| 20260504172003 | 68 | 13 | 8.0 | 14.0 | 0.00 | 0.00 | 0.00 | 27 | 1012.7 |
| 20260504171003 | 68 | 9 | 8.0 | 18.0 | 0.00 | 0.00 | 0.00 | 24 | 1012.7 |
| 20260504170213 | 68 | 3 | 9.0 | 16.0 | 0.00 | 0.00 | 0.00 | 25 | 1012.8 |
| 20260504160215 | 67 | 350 | 8.0 | 13.0 | 0.00 | 0.00 | 0.00 | 25 | 1012.7 |
| 20260504151003 | 65 | 353 | 5.0 | 10.0 | 0.00 | 0.00 | 0.00 | 27 | 1012.8 |
| 20260504141003 | 63 | 330 | 2.0 | 6.0 | 0.00 | 0.00 | 0.00 | 34 | 1012.5 |
| 20260504081003 | 54 | 352 | 3.0 | 4.0 | 0.00 | 0.00 | 0.00 | 49 | 1012.9 |
| 20260504060213 | 62 | 308 | 8.0 | 11.0 | 0.00 | 0.00 | 0.00 | 40 | 1012.9 |
| 20260504050214 | 64 | 305 | 9.0 | 11.0 | 0.00 | 0.00 | 0.00 | 37 | 1013.0 |
| 20260504045003 | 64 | 303 | 9.0 | 10.0 | 0.00 | 0.00 | 0.00 | 38 | 1013.1 |
| 20260504044003 | 65 | 297 | 7.0 | 10.0 | 0.00 | 0.00 | 0.00 | 37 | 1013.1 |
| 20260504043003 | 63 | 302 | 5.0 | 8.0 | 0.00 | 0.00 | 0.00 | 39 | 1013.2 |
| 20260504042003 | 58 | 326 | 3.0 | 4.0 | 0.00 | 0.00 | 0.00 | 47 | 1013.2 |
| 20260504041003 | 59 | 335 | 3.0 | 5.0 | 0.00 | 0.00 | 0.00 | 44 | 1013.2 |
| 20260504040003 | 58 | 335 | 4.0 | 6.0 | 0.00 | 0.00 | 0.00 | 47 | 1013.2 |
| 20260504035003 | 59 | 331 | 3.0 | 5.0 | 0.00 | 0.00 | 0.00 | 45 | 1013.0 |
| 20260504034004 | 61 | 330 | 2.0 | 3.0 | 0.00 | 0.00 | 0.00 | 43 | 1012.9 |
| 20260504033003 | 63 | 270 | 0.0 | 2.0 | 0.00 | 0.00 | 0.00 | 39 | 1012.9 |
| 20260504032003 | 65 | 262 | 0.0 | 2.0 | 0.00 | 0.00 | 0.00 | 37 | 1012.9 |
| 20260504031003 | 66 | 0 | 0.0 | 0.0 | 0.00 | 0.00 | 0.00 | 35 | 1012.9 |
| 20260504030003 | 68 | 0 | 0.0 | 0.0 | 0.00 | 0.00 | 0.00 | 33 | 1012.8 |
| 20260504025003 | 70 | 0 | 0.0 | 0.0 | 0.00 | 0.00 | 0.00 | 31 | 1012.8 |
| 20260504024003 | 70 | 243 | 0.0 | 3.0 | 0.00 | 0.00 | 0.00 | 30 | 1012.7 |
| 20260504023003 | 72 | 243 | 0.0 | 2.0 | 0.00 | 0.00 | 0.00 | 29 | 1012.7 |
| 20260504022213 | 72 | 214 | 0.0 | 1.0 | 0.00 | 0.00 | 0.00 | 29 | 1012.7 |
| 20260504021213 | 72 | 177 | 1.0 | 3.0 | 0.00 | 0.00 | 0.00 | 28 | 1012.9 |
| 20260504020003 | 71 | 159 | 1.0 | 4.0 | 0.00 | 0.00 | 0.00 | 28 | 1012.9 |
| 20260504015003 | 72 | 184 | 3.0 | 6.0 | 0.00 | 0.00 | 0.00 | 28 | 1012.9 |
| 20260504014003 | 72 | 178 | 4.0 | 8.0 | 0.00 | 0.00 | 0.00 | 27 | 1013.0 |
| 20260504013003 | 72 | 164 | 1.0 | 5.0 | 0.00 | 0.00 | 0.00 | 26 | 1013.1 |
| 20260504012003 | 73 | 217 | 2.0 | 7.0 | 0.00 | 0.00 | 0.00 | 26 | 1013.2 |
| 20260504011003 | 73 | 177 | 1.0 | 4.0 | 0.00 | 0.00 | 0.00 | 26 | 1013.3 |
| 20260504010004 | 73 | 227 | 3.0 | 8.0 | 0.00 | 0.00 | 0.00 | 25 | 1013.4 |
| 20260504005003 | 73 | 213 | 4.0 | 8.0 | 0.00 | 0.00 | 0.00 | 25 | 1013.4 |
| 20260504004003 | 73 | 198 | 1.0 | 4.0 | 0.00 | 0.00 | 0.00 | 25 | 1013.5 |
| 20260504003003 | 73 | 191 | 4.0 | 8.0 | 0.00 | 0.00 | 0.00 | 25 | 1013.6 |
| 20260504002212 | 73 | 162 | 3.0 | 8.0 | 0.00 | 0.00 | 0.00 | 26 | 1013.6 |
| 20260504001003 | 73 | 174 | 4.0 | 10.0 | 0.00 | 0.00 | 0.00 | 25 | 1013.8 |
| 20260504000003 | 73 | 196 | 4.0 | 9.0 | 0.00 | 0.00 | 0.00 | 24 | 1013.9 |
| 20260503235003 | 73 | 178 | 3.0 | 6.0 | 0.00 | 0.00 | 0.00 | 24 | 1014.0 |
| 20260503234003 | 73 | 198 | 3.0 | 7.0 | 0.00 | 0.00 | 0.00 | 26 | 1014.0 |
| 20260503233003 | 73 | 207 | 3.0 | 9.0 | 0.00 | 0.00 | 0.00 | 24 | 1014.2 |
| 20260503232003 | 73 | 192 | 4.0 | 9.0 | 0.00 | 0.00 | 0.00 | 23 | 1014.3 |